SCP
0 0 0 0 0 0 0 0 0 0 0 0 0 0 0 0 0 0 0 0 0 0 0 0 0 0 0 0 0 0 0 0 0 0 0 0 0 0 0 0 0 0 0
0 0 0 0 0 0 0 0 0 0 0 0 0 0 0 0 0 0 0 0 0 0 0 0 0 0 0 0 0 0 0 0 0 0 0 0 0 0 0 0 0 0 0
0 0 0 0 0 0 0 0 0 0 0 0 0 0 0 0 0 0 0 0 0 0 0 0 0 0 0 0 0 0 0 0 0 0 0 0 0 0 0 0 0 0 0
0 0 0 0 0 0 0 0 0 0 0 0 0 0 0 0 0 0 0 0 0 0 0 0 0 0 0 0 0 0 0 0 0 0 0 0 0 0 0 0 0 0 0
0 0 0 0 0 0 0 0 0 0 0 0 0 0 0 0 0 0 0 0 0 0 0 0 0 0 0 0 0 0 0 0 0 0 0 0 0 0 0 0 0 0 0
0 0 0 0 0 0 0 0 0 0 0 0 0 0 0 0 0 0 0 0 0 0 0 0 0 0 0 0 0 0 0 0 0 0 0 0 0 0 0 0 0 0 0
0 0 0 0 0 0 0 0 0 0 0 0 0 0 0 0 0 0 0 0 0 0 0 0 0 0 0 0 0 0 0 0 0 0 0 0 0 0 0 0 0 0 0
0 0 0 0 0 0 0 0 0 0 0 0 0 0 0 0 0 0 0 0 0 0 0 0 0 0 0 0 0 0 0 0 0 0 0 0 0 0 0 0 0 0 0
0 0 0 0 0 0 0 0 0 0 0 0 0 0 0 0 0 0 0 0 0 0 0 0 0 0 0 0 0 0 0 0 0 0 0 0 0 0 0 0 0 0 0
0 0 0 0 0 0 0 0 0 0 0 0 0 0 0 0 0 0 0 0 0 0 0 0 0 0 0 0 0 0 0 0 0 0 0 0 0 0 0 0 0 0 0
0 0 0 0 0 0 0 0 0 0 0 0 0 0 0 0 0 0 0 0 0 0 0 0 0 0 0 0 0 0 0 0 0 0 0 0 0 0 0 0 0 0 0
0 0 0 0 0 0 0 0 0 0 0 0 0 0 0 0 0 0 0 0 0 0 0 0 0 0 0 0 0 0 0 0 0 0 0 0 0 0 0 0 0 0 0
0 0 0 0 0 0 0 0 0 0 0 0 0 0 0 0 0 0 0 0 0 0 0 0 0 0 0 0 0 0 0 0 0 0 0 0 0 0 0 0 0 0 0
0 0 0 0 0 0 0 0 0 0 0 0 0 0 0 0 0 0 0 0 0 0 0 0 0 0 0 0 0 0 0 0 0 0 0 0 0 0 0 0 0 0 0
0 0 0 0 0 0 0 0 0 0 0 0 0 0 0 0 0 0 0 0 0 0 0 0 0 0 0 0 0 0 0 0 0 0 0 0 0 0 0 0 0 0 0
0 0 0 0 0 0 0 0 0 0 0 0 0 0 0 0 0 0 0 0 0 0 0 0 0 0 0 0 0 0 0 0 0 0 0 0 0 0 0 0 0 0 0
0 0 0 0 0 0 0 0 0 0 0 0 0 0 0 0 0 0 0 0 0 0 0 0 0 0 0 0 0 0 0 0 0 0 0 0 0 0 0 0 0 0 0
1 1 0 0 0 0 0 0 0 0 0 0 0 0 0 0 0 0 0 0 0 0 0 0 0 0 0 0 0 0 0 0 0 0 0 0 0 0 0 0 0 0 0
1 1 0 0 0 0 0 0 0 0 0 0 0 0 0 0 0 0 0 0 0 0 0 0 0 0 0 0 0 0 0 0 0 0 0 0 0 0 0 0 0 0 0
1 1 0 0 0 0 0 0 0 0 0 0 0 0 0 0 0 0 0 0 0 0 0 0 0 0 0 0 0 0 0 0 0 0 0 0 0 0 0 0 0 0 0
1 1 0 0 0 0 0 0 0 0 0 0 0 0 0 0 0 0 0 0 0 0 0 0 0 0 0 0 0 0 0 0 0 0 0 0 0 0 0 0 1 1 1
1 1 1 0 0 0 0 0 0 0 0 0 0 0 0 0 0 0 0 0 0 0 0 0 0 0 0 0 0 0 0 0 0 0 0 0 0 0 0 0 1 1 1
1 1 1 1 0 0 0 0 0 0 0 0 0 0 0 0 0 0 0 0 0 0 0 0 0 0 0 0 0 0 0 0 0 0 0 0 0 0 0 0 0 1 1
1 1 1 1 1 0 0 0 0 0 0 0 0 0 0 0 0 0 0 0 0 0 0 0 0 0 0 0 0 0 0 0 0 0 0 0 0 0 0 0 0 0 1
1 1 1 1 1 1 0 0 0 0 0 0 0 0 0 0 0 0 1 1 1 1 0 0 0 0 0 0 0 0 0 0 0 0 0 0 0 0 0 0 0 0 1
1 1 1 1 1 1 1 0 0 0 0 0 0 0 0 0 1 1 1 1 1 1 1 1 1 0 1 0 0 0 0 0 0 0 0 0 0 0 0 0 0 1 1
Wind_Speed
10 11 12 11 14 14 13 13 14 14 14 15 15 15 15 16 16 16 16 16 16 16 14 13 13 12 12 12 12 12 12 12 12 13 13 12 12 11 10 10 11 11 13
13 13 14 13 14 14 13 13 13 13 14 14 15 15 15 15 15 16 15 15 15 15 14 13 12 12 11 11 11 11 10 10 11 11 12 11 11 10 9 9 11 9 13
14 13 13 14 14 13 13 13 13 13 13 14 14 14 15 14 14 15 15 14 14 14 13 12 11 11 11 11 10 10 9 8 9 9 10 8 8 10 10 11 12 12 12
13 12 13 14 13 13 13 13 13 13 14 14 13 14 14 14 14 14 14 14 14 13 12 11 11 10 10 10 9 8 7 6 7 7 5 7 8 10 10 11 11 11 11
12 12 13 15 14 13 13 12 12 13 13 13 13 13 13 13 14 14 14 13 13 12 12 11 10 10 9 9 8 6 5 4 4 5 3 7 7 10 10 10 10 10 10
13 13 14 15 14 13 13 12 12 12 13 13 13 13 13 13 13 13 13 13 12 11 11 10 9 9 8 8 6 5 4 4 4 4 4 7 7 10 10 9 9 9 9
12 12 13 15 14 13 12 12 12 12 12 12 12 12 13 13 13 13 13 12 12 11 10 9 8 7 7 6 5 3 3 4 4 2 5 8 8 11 10 9 8 8 8
12 12 12 15 15 13 12 12 12 12 12 12 12 12 12 13 13 12 12 12 11 11 10 8 8 7 6 5 4 3 4 6 3 3 6 8 11 11 10 9 8 8 7
12 12 10 11 12 13 13 12 12 12 11 11 11 11 12 12 12 12 12 11 11 10 9 8 7 6 5 4 4 5 6 7 5 2 6 7 11 12 11 9 8 8 7
11 11 11 11 10 10 10 12 12 11 11 11 11 11 11 12 12 13 11 11 11 10 10 9 7 6 6 5 6 7 7 6 5 2 5 8 13 12 11 9 8 8 7
10 9 9 10 9 9 9 11 11 11 10 10 9 11 10 7 8 9 10 11 11 10 10 9 8 7 7 8 8 8 7 4 3 2 5 12 12 11 10 9 8 8 8
8 8 6 8 8 8 7 8 6 6 7 5 5 6 5 4 5 7 10 12 11 11 10 10 8 8 7 5 7 9 4 4 2 3 6 14 12 11 9 8 8 8 8
8 7 7 6 6 6 5 5 4 3 4 5 5 4 3 3 4 5 4 6 7 9 6 7 7 5 4 3 3 3 3 2 1 2 7 13 11 10 9 8 7 8 7
9 7 7 6 5 4 4 4 4 4 3 3 4 4 3 2 3 4 3 4 4 4 4 3 3 3 3 3 3 3 2 1 1 2 6 12 11 10 9 8 8 8 8
9 7 7 6 5 3 3 2 4 4 4 5 4 4 4 3 3 3 3 2 3 3 3 2 2 2 2 2 2 2 1 2 1 2 4 10 10 10 10 9 8 8 8
8 7 6 6 5 3 3 2 2 3 3 4 4 5 4 3 3 3 3 3 2 3 3 2 2 2 2 2 2 2 2 2 2 2 4 7 10 10 10 9 9 8 8
8 7 5 6 6 4 3 3 3 3 4 3 4 5 5 4 4 3 3 3 3 3 3 2 2 1 2 2 2 3 2 2 2 3 3 4 6 9 10 9 9 9 9
8 6 4 4 6 4 3 3 2 2 3 3 4 4 5 5 5 3 3 3 4 3 3 2 2 2 1 1 1 2 2 3 3 3 3 3 4 5 8 11 10 9 9
8 6 4 4 4 4 3 2 2 2 2 3 3 4 5 5 5 4 3 3 3 3 3 3 3 2 2 1 1 2 2 2 3 4 4 4 4 4 5 9 11 10 10
8 6 5 4 4 3 2 2 2 2 2 3 3 3 5 4 5 4 3 4 3 3 3 2 2 2 2 2 2 1 2 2 2 3 4 4 4 5 6 6 7 8 11
8 7 5 4 3 2 2 2 2 2 2 3 3 4 4 4 4 3 3 4 4 3 4 4 3 2 2 2 1 1 1 3 3 3 3 2 3 4 4 5 5 5 5
9 8 6 5 4 3 2 2 2 2 2 2 2 4 4 4 4 4 3 3 3 3 4 4 3 2 3 2 1 1 1 2 2 4 3 4 4 3 4 6 5 5 5
9 8 6 5 4 3 3 2 2 2 1 2 3 3 4 4 4 3 3 3 3 3 4 4 4 4 3 2 2 2 1 2 1 2 3 3 3 3 3 3 5 5 5
9 9 6 5 4 3 3 3 3 3 2 2 2 3 3 4 4 4 4 3 3 3 3 4 4 4 4 3 2 3 3 2 1 1 2 3 3 3 3 4 4 4 4
9 9 7 6 4 3 3 3 2 2 2 2 2 3 3 3 4 4 4 3 3 3 3 4 3 4 3 3 3 2 3 2 3 2 3 3 3 3 3 3 3 3 4
9 9 8 7 5 4 3 3 2 2 1 1 2 2 2 2 2 3 4 3 3 3 3 4 4 5 4 4 3 3 2 2 3 3 3 3 3 3 3 2 3 3 3
Wind_Direction
111 116 117 113 124 120 117 116 115 115 114 114 114 114 113 113 113 113 113 114 115 115 115 113 111 107 106 104 103 104 105 104 103 104 103 102 100 100 101 108 112 104 107
114 117 115 110 117 119 118 117 117 118 118 117 117 116 116 116 116 115 116 117 117 116 115 113 111 108 106 107 109 110 112 114 115 117 116 111 106 102 99 100 98 109 112
113 118 120 116 118 118 118 118 119 120 120 118 118 120 120 119 119 119 119 119 119 118 117 115 113 111 111 112 115 118 121 126 131 138 140 124 113 105 101 101 105 112 113
117 121 119 121 120 120 121 120 120 122 123 122 121 123 123 124 125 125 123 122 121 120 118 116 115 115 115 117 121 126 132 145 159 171 172 137 119 113 112 111 114 116 117
113 115 120 126 124 123 123 124 124 125 125 126 127 127 127 128 129 127 125 123 123 122 122 121 120 120 120 122 127 134 149 175 195 214 147 111 110 126 125 122 123 124 125
116 117 124 128 126 125 125 125 127 126 126 127 129 130 130 132 130 128 127 126 125 125 125 125 124 124 127 132 138 148 173 209 236 221 137 121 122 134 135 135 135 134 134
116 118 127 130 127 128 128 128 130 131 130 130 131 132 134 133 132 132 133 132 131 131 129 130 129 130 132 138 147 171 210 242 248 195 128 120 131 141 143 144 144 141 140
114 117 124 132 130 130 131 132 133 135 136 136 136 136 137 139 140 140 140 139 138 139 140 139 137 139 140 149 169 206 234 259 249 167 133 128 140 145 148 151 155 153 154
115 119 127 135 137 136 135 137 136 137 140 142 143 144 144 145 147 149 147 147 147 148 152 151 150 154 158 171 202 227 242 259 275 197 142 131 143 148 152 157 163 164 164
113 122 133 138 141 143 141 143 142 141 143 147 149 152 155 155 157 157 154 155 158 160 163 164 168 173 178 196 218 234 246 262 253 207 129 135 147 151 157 164 170 172 171
110 117 128 135 140 143 143 145 149 149 150 154 159 165 168 168 162 165 156 162 167 171 172 174 181 187 194 207 219 231 247 247 233 153 122 141 151 155 162 170 175 177 179
105 109 113 124 133 138 136 137 151 156 154 165 162 170 182 175 161 154 159 171 176 178 179 185 193 200 207 207 212 220 235 244 232 147 137 150 155 159 166 174 180 183 186
114 111 109 112 113 121 125 137 145 145 150 164 167 173 165 155 152 151 161 171 183 184 187 186 198 208 204 204 203 204 223 236 216 129 144 156 159 164 171 180 186 188 190
112 108 105 104 102 106 124 138 145 149 151 151 159 169 158 161 155 155 157 166 180 181 179 185 198 188 191 207 204 204 210 182 172 121 154 162 164 169 175 181 190 194 195
111 113 113 113 109 107 114 144 146 146 150 150 157 167 160 155 153 149 152 164 178 164 165 192 191 171 172 205 220 190 201 201 191 144 154 167 170 173 175 181 192 201 203
119 120 120 124 116 120 134 146 133 144 145 147 155 154 158 156 149 147 155 160 180 176 173 183 189 174 177 198 210 198 198 195 184 168 159 165 173 176 179 184 192 201 205
122 124 129 135 127 131 147 166 156 157 145 153 150 154 157 161 151 156 163 165 182 186 176 174 194 176 199 209 206 206 193 188 185 188 166 164 173 184 188 189 194 200 206
127 130 136 132 134 144 160 174 162 160 156 158 151 157 166 167 166 168 179 177 180 181 173 173 189 195 213 222 216 227 198 184 196 187 185 183 177 178 190 198 199 203 210
130 131 131 125 133 146 167 173 168 154 160 157 159 166 168 172 172 182 183 177 181 179 180 194 169 188 216 236 236 216 215 210 202 207 198 198 187 178 179 194 201 205 210
136 135 136 137 131 150 162 173 168 160 169 171 170 166 159 172 178 184 185 178 186 183 183 189 179 202 213 230 256 237 230 219 211 214 214 202 194 195 190 183 191 208 213
143 143 146 152 148 161 173 186 179 175 181 175 175 162 160 176 178 184 194 173 188 189 191 188 184 206 219 217 253 274 256 238 216 212 206 207 208 203 187 183 190 193 198
152 153 156 159 168 191 181 197 191 187 188 174 170 157 169 180 184 191 184 192 186 186 184 192 194 209 231 215 199 240 265 281 258 219 203 208 212 208 199 200 202 197 199
156 160 163 165 175 192 185 197 189 169 194 171 167 165 177 182 179 188 184 200 198 203 190 194 203 212 218 231 212 205 208 233 282 260 232 220 211 213 214 205 209 200 206
161 159 152 157 170 178 179 199 191 181 180 176 169 167 179 185 183 189 191 202 204 209 203 209 202 213 213 224 232 227 223 203 209 255 260 235 226 219 224 228 219 200 204
163 159 155 151 157 161 175 182 192 187 181 178 169 168 184 189 189 197 198 198 200 213 217 219 212 217 222 226 230 227 233 225 223 216 246 244 246 231 222 222 219 208 205
161 159 158 154 156 155 157 165 180 190 193 201 196 181 192 191 197 198 199 194 202 215 220 224 220 223 225 234 241 241 232 229 232 225 235 236 235 239 228 226 228 213 205